Tracking 30692 objects as of 17-Jun-2025
HD Live streaming from Space Station
objects crossing your sky now

FENGYUN 1C DEB

Track FENGYUN 1C DEB now!
10-day predictions


NORAD ID: 36180
Int'l Code: 1999-025DTD
Perigee: 679.5 km
Apogee: 985.2 km
Inclination: 98.5 °
Period: 101.4 minutes
Semi major axis: 7203 km
RCS: 0.0053 m2 (small)
Launch date: May 10, 1999
Source: People's Republic of China (PRC)
Launch site: Taiyaun Space Center, China (TSC)

Note: This is SATELLITE DEBRIS
Your satellite tracking list
Your tracking list is empty




NASA's NSSDC Master Catalog

Two Line Element Set (TLE):
1 36180U 99025DTD 25164.47637881  .00002149  00000-0  82173-3 0  9995
2 36180  98.4635 235.6936 0212191 199.0671 160.2477 14.20048044679969
Source of the keplerian elements: AFSPC